FALCON 9 DEB (48608 NORAD) Tracking and Keplerian Element Data

This shows tracking and keplerian element data for the satellite.

Feedback or suggestion? Click here.




ElementValue
Catalog48608
NameFALCON 9 DEB
Epoch Orbit1121
Epoch Day210.7809124
Epoch Year2021
RAAN143.6974
Inclination53.0355
Eccentricity0.0013388
Argument of Perigee162.0849
Mean Anonmoly198.061
Mean Motion14.97361662
Decay Rate2.107E-05
L11 48608U 21041BH 21210.78091240 .00002107 00000-0 20151-3 0 9993
L22 48608 53.0355 143.6974 0013388 162.0849 198.0610 14.97361662 11211

Live tracking and technical data element details for FALCON 9 DEB (NORAD 48608). FALCON 9 DEB can be tracked NOW for your location showing map with azimuth and elevation plus other details from your city location.

Track the satellite on the map from your city or location and see movement details for azimuth, elevation, latitude, longitude, range, height, and movement on the map or in text.







IsCatalogInMostPopularTable: catalog: 48608, numindb: 17
Update: records affected: 1



GetName: 48608 FALCON 9 DEB

Hit Count: updated at: Sat, 31 Jul 2021 14:55:38 GMT